Weather History for Stevensville, MD

Change the Weather History Date:

Saturday, September 14, 2013

  Actual Average (KESN) Record (KESN)
Temperature  
Mean Temperature 64 °F -  
Max Temperature 68 °F 81 °F 91 °F (1952)
Min Temperature 59 °F 59 °F 44 °F (1975)
Degree Days  
Heating Degree Days 2    
Growing Degree Days 14 (Base 50)    
Moisture  
Dew Point 46 °F    
Average Humidity 55    
Maximum Humidity 72    
Minimum Humidity 40    
Precipitation  
Precipitation 0.00 in - - ()
Sea Level Pressure  
Sea Level Pressure 30.05 in    
Wind  
Wind Speed 8 mph (North)    
Max Wind Speed 14 mph    
Max Gust Speed 20 mph    
Visibility 10 miles    
Events      
Averages and records for this station are not official NWS values.
T = Trace of Precipitation, MM = Missing Value Source: NWS Daily Summary

Daily Weather History Graph

Daily Weather History Graph

Search for Another Location

Airport:

Trip Planner

Search our weather history database for the weather conditions in past years. The results will help you decide how hot, cold, wet, or windy it might be!

Date:

Astronomy

Sep. 14, 2013 Rise Set
Actual Time 6:46 AM EDT 7:14 PM EDT
Civil Twilight 6:19 AM EDT 7:41 PM EDT
Nautical Twilight 5:47 AM EDT 8:13 PM EDT
Astronomical Twilight 5:15 AM EDT 8:45 PM EDT
Moon 3:52 PM EDT (9/14) 1:17 AM EDT (9/14)
Length of Visible Light 13h 22m
Length of Day
12h 28m
Waxing Gibbous, 72% of the Moon is Illuminated
Sep 14
Waxing Gibbous
Sep 19
Full
Sep 26
Last Quarter
Oct 4
New
Oct 11
First Quarter

Hourly Weather History & Observations

Time (EDT) Temp. Dew Point Humidity Pressure Visibility Wind Dir Wind Speed Gust Speed Precip Events Conditions
12:09 AM 64.4 °F 51.8 °F 64% 29.92 in 10.0 mi NW 9.2 mph - N/A   Scattered Clouds
12:29 AM 64.4 °F 50.0 °F 59% 29.91 in 10.0 mi NW 8.1 mph 17.3 mph N/A   Scattered Clouds
12:49 AM 64.4 °F 50.0 °F 59% 29.92 in 10.0 mi NNW 11.5 mph 18.4 mph N/A   Scattered Clouds
1:09 AM 64.4 °F 50.0 °F 59% 29.92 in 10.0 mi NNW 10.4 mph 19.6 mph N/A   Scattered Clouds
1:30 AM 64.4 °F 50.0 °F 59% 29.92 in 10.0 mi NNW 13.8 mph 18.4 mph N/A   Scattered Clouds
1:50 AM 62.6 °F 50.0 °F 63% 29.93 in 10.0 mi NNW 11.5 mph 19.6 mph N/A   Scattered Clouds
2:10 AM 62.6 °F 48.2 °F 59% 29.93 in 10.0 mi NNW 10.4 mph 18.4 mph N/A   Scattered Clouds
2:30 AM 62.6 °F 48.2 °F 59% 29.93 in 10.0 mi NNW 9.2 mph 16.1 mph N/A   Scattered Clouds
2:50 AM 62.6 °F 48.2 °F 59% 29.94 in 10.0 mi NNW 8.1 mph 17.3 mph N/A   Scattered Clouds
3:10 AM 60.8 °F 46.4 °F 59% 29.94 in 10.0 mi NNW 10.4 mph 16.1 mph N/A   Clear
3:30 AM 60.8 °F 48.2 °F 63% 29.94 in 10.0 mi NNW 9.2 mph 17.3 mph N/A   Scattered Clouds
3:50 AM 60.8 °F 48.2 °F 63% 29.95 in 10.0 mi NNW 9.2 mph 16.1 mph N/A   Scattered Clouds
4:10 AM 60.8 °F 48.2 °F 63% 29.96 in 10.0 mi North 8.1 mph - N/A   Scattered Clouds
4:30 AM 60.8 °F 48.2 °F 63% 29.96 in 10.0 mi North 6.9 mph - N/A   Mostly Cloudy
4:50 AM 60.8 °F 48.2 °F 63% 29.97 in 10.0 mi North 6.9 mph - N/A   Mostly Cloudy
5:10 AM 59.0 °F 46.4 °F 63% 29.97 in 10.0 mi North 12.7 mph - N/A   Overcast
5:30 AM 59.0 °F 46.4 °F 63% 29.98 in 10.0 mi North 8.1 mph 16.1 mph N/A   Overcast
5:50 AM 59.0 °F 46.4 °F 63% 29.98 in 10.0 mi North 6.9 mph - N/A   Mostly Cloudy
6:10 AM 59.0 °F 46.4 °F 63% 29.99 in 10.0 mi North 9.2 mph - N/A   Mostly Cloudy
6:30 AM 59.0 °F 46.4 °F 63% 30.00 in 10.0 mi NNW 11.5 mph 16.1 mph N/A   Mostly Cloudy
6:50 AM 59.0 °F 46.4 °F 63% 30.01 in 10.0 mi NNW 8.1 mph - N/A   Scattered Clouds
7:10 AM 59.0 °F 44.6 °F 59% 30.02 in 10.0 mi NNW 8.1 mph - N/A   Scattered Clouds
7:30 AM 59.0 °F 44.6 °F 59% 30.02 in 10.0 mi North 5.8 mph - N/A   Scattered Clouds
7:50 AM 59.0 °F 44.6 °F 59% 30.03 in 10.0 mi North 9.2 mph - N/A   Scattered Clouds
8:10 AM 59.0 °F 44.6 °F 59% 30.03 in 10.0 mi North 6.9 mph - N/A   Scattered Clouds
8:30 AM 60.8 °F 44.6 °F 55% 30.04 in 10.0 mi NNW 8.1 mph - N/A   Scattered Clouds
8:50 AM 59.0 °F 44.6 °F 59% 30.05 in 10.0 mi NNW 11.5 mph 18.4 mph N/A   Scattered Clouds
9:10 AM 59.0 °F 44.6 °F 59% 30.06 in 10.0 mi NNW 9.2 mph - N/A   Scattered Clouds
9:30 AM 60.8 °F 44.6 °F 55% 30.07 in 10.0 mi North 9.2 mph 16.1 mph N/A   Scattered Clouds
9:50 AM 60.8 °F 44.6 °F 55% 30.07 in 10.0 mi NNW 9.2 mph - N/A   Scattered Clouds
10:10 AM 62.6 °F 46.4 °F 55% 30.07 in 10.0 mi NNW 10.4 mph - N/A   Clear
10:31 AM 60.8 °F 44.6 °F 55% 30.07 in 10.0 mi NNW 10.4 mph - N/A   Clear
10:51 AM 62.6 °F 44.6 °F 52% 30.07 in 10.0 mi NW 6.9 mph - N/A   Scattered Clouds
11:11 AM 62.6 °F 44.6 °F 52% 30.07 in 10.0 mi NW 9.2 mph - N/A   Clear
11:31 AM 64.4 °F 44.6 °F 49% 30.07 in 10.0 mi NW 9.2 mph - N/A   Scattered Clouds
11:51 AM 64.4 °F 44.6 °F 49% 30.07 in 10.0 mi North 6.9 mph - N/A   Clear
12:11 PM 64.4 °F 44.6 °F 49% 30.07 in 10.0 mi NNW 9.2 mph - N/A   Scattered Clouds
12:31 PM 64.4 °F 44.6 °F 49% 30.07 in 10.0 mi NNW 9.2 mph - N/A   Scattered Clouds
12:51 PM 66.2 °F 44.6 °F 46% 30.07 in 10.0 mi North 11.5 mph - N/A   Scattered Clouds
1:11 PM 64.4 °F 42.8 °F 45% 30.07 in 10.0 mi NNW 10.4 mph - N/A   Scattered Clouds
1:31 PM 66.2 °F 42.8 °F 43% 30.07 in 10.0 mi North 9.2 mph 16.1 mph N/A   Scattered Clouds
1:51 PM 66.2 °F 42.8 °F 43% 30.07 in 10.0 mi NNW 9.2 mph - N/A   Scattered Clouds
2:11 PM 66.2 °F 44.6 °F 46% 30.07 in 10.0 mi NNW 11.5 mph - N/A   Scattered Clouds
2:31 PM 66.2 °F 44.6 °F 46% 30.07 in 10.0 mi NNW 11.5 mph 16.1 mph N/A   Scattered Clouds
2:51 PM 68.0 °F 44.6 °F 43% 30.07 in 10.0 mi North 9.2 mph - N/A   Clear
3:11 PM 68.0 °F 42.8 °F 40% 30.07 in 10.0 mi North 9.2 mph - N/A   Scattered Clouds
3:31 PM 68.0 °F 44.6 °F 43% 30.06 in 10.0 mi NNW 10.4 mph - N/A   Scattered Clouds
3:51 PM 68.0 °F 44.6 °F 43% 30.06 in 10.0 mi NNW 9.2 mph - N/A   Clear
4:11 PM 68.0 °F 42.8 °F 40% 30.06 in 10.0 mi North 6.9 mph - N/A   Clear
4:31 PM 68.0 °F 42.8 °F 40% 30.06 in 10.0 mi NNW 8.1 mph - N/A   Clear
4:51 PM 68.0 °F 42.8 °F 40% 30.06 in 10.0 mi NW 5.8 mph - N/A   Clear
5:11 PM 68.0 °F 44.6 °F 43% 30.07 in 10.0 mi NNE 5.8 mph - N/A   Clear
5:31 PM 68.0 °F 44.6 °F 43% 30.08 in 10.0 mi North 5.8 mph - N/A   Clear
5:51 PM 68.0 °F 44.6 °F 43% 30.08 in 10.0 mi North 4.6 mph - N/A   Clear
6:11 PM 66.2 °F 44.6 °F 46% 30.08 in 10.0 mi NE 4.6 mph - N/A   Clear
6:31 PM 66.2 °F 44.6 °F 46% 30.09 in 10.0 mi NE 4.6 mph - N/A   Clear
6:52 PM 64.4 °F 44.6 °F 49% 30.09 in 10.0 mi NNE 3.5 mph - N/A   Clear
7:12 PM 62.6 °F 46.4 °F 55% 30.10 in 10.0 mi Calm Calm - N/A   Clear
7:32 PM 62.6 °F 46.4 °F 55% 30.10 in 10.0 mi NNE 3.5 mph - N/A   Scattered Clouds
7:52 PM 62.6 °F 46.4 °F 55% 30.11 in 10.0 mi Calm Calm - N/A   Clear
8:12 PM 60.8 °F 46.4 °F 59% 30.12 in 10.0 mi Calm Calm - N/A   Clear
8:32 PM 60.8 °F 46.4 °F 59% 30.13 in 10.0 mi NE 3.5 mph - N/A   Clear
8:52 PM 62.6 °F 46.4 °F 55% 30.13 in 10.0 mi Calm Calm - N/A   Clear
9:12 PM 60.8 °F 46.4 °F 59% 30.14 in 10.0 mi ENE 4.6 mph - N/A   Scattered Clouds
9:32 PM 60.8 °F 48.2 °F 63% 30.15 in 10.0 mi East 3.5 mph - N/A   Clear
9:52 PM 60.8 °F 48.2 °F 63% 30.15 in 10.0 mi Calm Calm - N/A   Clear
10:12 PM 59.0 °F 50.0 °F 72% 30.15 in 10.0 mi Calm Calm - N/A   Clear
10:32 PM 59.0 °F 48.2 °F 67% 30.16 in 10.0 mi Calm Calm - N/A   Clear
10:52 PM 59.0 °F 46.4 °F 63% 30.16 in 10.0 mi East 5.8 mph - N/A   Clear
11:12 PM 59.0 °F 46.4 °F 63% 30.17 in 10.0 mi East 4.6 mph - N/A   Clear
11:32 PM 59.0 °F 46.4 °F 63% 30.17 in 10.0 mi ENE 4.6 mph - N/A   Clear
11:52 PM 59.0 °F 46.4 °F 63% 30.17 in 10.0 mi East 3.5 mph - N/A   Clear